057  
ASUS42 KFFC 172310  
RWRGA  
WEATHER ROUNDUP FOR GEORGIA  
NATIONAL WEATHER SERVICE PEACHTREE CITY GA  
700 PM EDT FRI AUG 17 2018  
 
NOTE: "FAIR" INDICATES FEW OR NO CLOUDS BELOW 12,000 FEET WITH NO  
SIGNIFICANT WEATHER AND/OR S TO VISIBILITY
.  
 
* = USE WITH CAUTION. THE STATIONS MARKED WITH AN ASTERISK MAY NOT  
REPORT WEATHER SUCH AS PRECIPITATION, FOG, OR THUNDER AND ARE NOT  
QUALITY CONTROLLED BY NWS.  
 
THE REMARK "TC" DENOTES TEMPERATURE READING IN DEGREES CELSIUS.  
 
GAZ001>058-180000-  
NORTH GEORGIA  
 
CITY SKY/WX TMP DP RH WIND PRES REMARKS
 
ATLANTA PTSUNNY 84 70 62 SW8 30.09F  
ATHENS FAIR 79 72 79 VRB3 30.10S  
CHAMBLEE PTSUNNY 81 73 76 S9 30.09F  
PEACHTREE CITY FAIR 82 75 79 CALM 30.09F  
ROME PTSUNNY 87 72 60 S10 30.03F HX 93  
WEST ATLANTA FAIR 84 72 67 SW9 30.08S  
GAINESVILLE FAIR 77 74 90 VRB5 30.12F  
CARTERSVILLE FAIR 82 72 71 VRB5 30.07F  
 
 
CITY SKY/WX TMP DP RH WIND PRES REMARKS
 
DALTON* FAIR 86 72 62 S5 30.06S HX 92  
LAWRENCEVILLE* FAIR 80 72 76 SE7 30.11S  
KENNESAW* FAIR 84 69 60 SW9 30.09F  
CANTON* CLOUDY 77 70 78 E3 30.10F  
BLAIRSVILLE* FAIR 81 68 64 S10 30.12F  

 
 
GAZ059>098-102>109-180000-  
CENTRAL GEORGIA  
 
CITY SKY/WX TMP DP RH WIND PRES REMARKS
 
AUGUSTA-BUSH FAIR 85 75 72 SW7 30.09F HX 93  
AUGUSTA-DANIEL FAIR 88 72 58 SW10 30.11S HX 94  
COLUMBUS FAIR 84 73 69 SW8 30.08F HX 90  
MACON FAIR 86 75 69 S10 30.08F HX 95  
ROBINS AFB PTSUNNY 85 75 71 S15 30.08F HX 94  
 
 
CITY SKY/WX TMP DP RH WIND PRES REMARKS
 
LAGRANGE* FAIR 82 77 84 SW7 30.09S HX 90  
SYLVANIA* N/A 75 73 93 CALM 30.13R THUNDER  
MILLEDGEVILLE* FAIR 81 77 89 CALM 30.08F  

 
 
GAZ099>101-110>166-180000-  
SOUTH GEORGIA  
 
CITY SKY/WX TMP DP RH WIND PRES REMARKS
 
SAVANNAH FAIR 85 74 69 S14 30.10F HX 92  
VALDOSTA PTSUNNY 80 73 79 CALM 30.13S THUNDER  
ALMA PTSUNNY 79 75 87 CALM 30.10F  
ST SIMONS PTSUNNY 85 73 67 S12G23 30.14R HX 91  
ALBANY FAIR 78 72 81 SW6 30.15R  
BRUNSWICK FAIR 84 72 65 S12G20 30.15R THUNDER  
 
 
CITY SKY/WX TMP DP RH WIND PRES REMARKS
 
BAINBRIDGE* N/A 81 72 74 S6 30.14S  
MOULTRIE* FAIR 75 72 88 CALM 30.15S  
VIDALIA* FAIR 81 73 78 CALM 30.11F  
WAYCROSS* HAZE 86 74 68 NW9G16 30.13R THUNDER VSB 1  
DOUGLAS* FAIR 79 73 83 SW5 30.14S  

 
 
 
CLICK HERE TO GO TO PREVIOUS BULLETINS.

The Nexlab GA Page Main Text Page